Regional Weather Roundup
Issued by NWS

Home | Current Version | Previous Version | Graphics & Text | Print | Product List | Glossary On
Versions: 1 2 3 4 5 6 7 8 9 10 11 12 13 14 15 16 17 18 19 20 21 22 23 24 25 26 27 28 29 30 31 32 33 34 35 36 37 38 39 40 41 42 43 44 45 46 47 48 49 50
000
ASUS43 KMKX 250611
RWRWI

WISCONSIN REGIONAL WEATHER ROUNDUP
NATIONAL WEATHER SERVICE MILWAUKEE/SULLIVAN WI
1200 AM CST SAT NOV 25 2017

NOTE: "FAIR" INDICATES FEW OR NO CLOUDS BELOW 12,000 FEET WITH NO
SIGNIFICANT WEATHER AND/OR OBSTRUCTIONS TO VISIBILITY.

WIZ001-002-006>008-014>016-023>028-250700-
NORTHWEST WISCONSIN

CITY           SKY/WX    TMP DP  RH WIND       PRES   REMARKS
SUPERIOR ARPT  CLOUDY    40  32  74 W13       29.65R WCI  32
6HR MIN TEMP:  39; 6HR MAX TEMP:  42;

ASHLAND        CLOUDY    40  32  73 W10       29.61R WCI  33
6HR MIN TEMP:  39; 6HR MAX TEMP:  42;

HAYWARD        CLOUDY    38  30  73 W6        29.65R WCI  33
6HR MIN TEMP:  38; 6HR MAX TEMP:  43;

SIREN          CLEAR     37  32  84 W9        29.71R WCI  30
6HR MIN TEMP:  36; 6HR MAX TEMP:  41;

CUMBERLAND     PTCLDY    34  32  93 W8        29.70R WCI  27
RICE LAKE      CLEAR     35  32  89 CALM      29.71S
6HR MIN TEMP:  35; 6HR MAX TEMP:  42;

CHETEK         CLEAR     36  33  88 W6        29.70S WCI  31
6HR MIN TEMP:  36; 6HR MAX TEMP:  43;

LADYSMITH      PTCLDY    37  31  77 W12       29.67R WCI  30
6HR MIN TEMP:  37; 6HR MAX TEMP:  44;

EAU CLAIRE     CLEAR     37  33  85 W6        29.70R WCI  32
6HR MIN TEMP:  37; 6HR MAX TEMP:  48;

MENOMONIE      CLEAR     37  33  84 W7        29.72R WCI  32
6HR MIN TEMP:  37; 6HR MAX TEMP:  47;

NEW RICHMOND   CLEAR     37  31  80 W10       29.74R WCI  30
6HR MIN TEMP:  36; 6HR MAX TEMP:  42;

OSCEOLA        CLEAR     39  32  75 W12G20    29.77R WCI  32
6HR MIN TEMP:  38; 6HR MAX TEMP:  43;

$$

WIZ003>005-009-010-017-018-250700-
NORTH CENTRAL WISCONSIN

CITY           SKY/WX    TMP DP  RH WIND       PRES   REMARKS
MANITOWISH WTR CLOUDY    37  35  93 W14       29.57R WCI  28
6HR MIN TEMP:  37; 6HR MAX TEMP:  40;

ARBOR VITAE    CLEAR     39  36  87 W10       29.57S WCI  32
6HR MIN TEMP:  39; 6HR MAX TEMP:  43;

WOODRUFF       CLEAR     39  36  87 W10       29.57S WCI  32
6HR MIN TEMP:  39; 6HR MAX TEMP:  43;

RHINELANDER    CLOUDY    39  35  86 W10       29.57S WCI  32
6HR MIN TEMP:  39; 6HR MAX TEMP:  46; 6HR PCP:  0.04;

EAGLE RIVER    CLOUDY    37  30  75 W6        29.55S WCI  32
6HR MIN TEMP:  37; 6HR MAX TEMP:  43;

LAND O LAKES   CLOUDY    37  33  85 W5        29.56S WCI  33
6HR MIN TEMP:  37; 6HR MAX TEMP:  42;

PHILLIPS       CLOUDY    38  33  82 W8        29.61R WCI  32
6HR MIN TEMP:  38; 6HR MAX TEMP:  42;

TOMAHAWK       CLOUDY    37  32  79 W9        29.60S WCI  31
6HR MIN TEMP:  37; 6HR MAX TEMP:  45;

MEDFORD        CLOUDY    38  32  79 W10       29.63S WCI  30
6HR MIN TEMP:  38; 6HR MAX TEMP:  46; 6HR PCP:  0.03;

MERRILL        CLOUDY    40  33  75 NW8       29.61S WCI  35
6HR MIN TEMP:  40; 6HR MAX TEMP:  48; 6HR PCP:  0.05;

$$

WIZ029-030-035-036-043>047-250700-
CENTRAL WISCONSIN

CITY           SKY/WX    TMP DP  RH WIND       PRES   REMARKS
WAUSAU         CLOUDY    40  33  76 W9        29.61R WCI  34
6HR MIN TEMP:  40; 6HR MAX TEMP:  50; 6HR PCP:  0.05;

MOSINEE        CLOUDY    39  34  81 W14G21    29.64R WCI  31
MARSHFIELD     MOCLDY    40  35  83 W13       29.64R WCI  32
6HR MIN TEMP:  40; 6HR MAX TEMP:  49; 6HR PCP:  0.02;

STEVENS POINT  MOCLDY    40  32  73 NW7G16    29.64R
6HR MIN TEMP:  40; 6HR MAX TEMP:  51; 6HR PCP:  0.03;

WAUPACA        PTCLDY    46  38  71 W13G21    29.63R
6HR MIN TEMP:  46; 6HR MAX TEMP:  59;

WAUTOMA        CLEAR     44  34  67 NW12G22   29.66R
6HR MIN TEMP:  44; 6HR MAX TEMP:  56;

WISC RAPIDS    MOCLDY    43  37  79 NW10      29.67R
6HR MIN TEMP:  43; 6HR MAX TEMP:  55;

CAMP DOUGLAS   MOCLDY    43  37  81 W14G22    29.69R
6HR MIN TEMP:  43; 6HR MAX TEMP:  57; 6HR PCP:  0.02;

$$

WIZ011>013-019>022-031-037>040-048>050-250700-
NORTHEAST WISCONSIN

CITY           SKY/WX    TMP DP  RH WIND       PRES   REMARKS
ANTIGO         CLOUDY    38  34  84 NW9       29.59R WCI  32
6HR MIN TEMP:  38; 6HR MAX TEMP:  47; 6HR PCP:  0.02;

SHAWANO        PTCLDY    44  36  71 NW8       29.59R
6HR MIN TEMP:  44; 6HR MAX TEMP:  58; 6HR PCP:  0.03;

OCONTO         CLOUDY    44  37  76 NW12G20   29.57R
6HR MIN TEMP:  44; 6HR MAX TEMP:  55; 6HR PCP:  0.07;

STURGEON BAY   CLOUDY    45  41  86 NW10      29.56R
6HR MIN TEMP:  45; 6HR MAX TEMP:  54; 6HR PCP:  0.06;

GREEN BAY      CLOUDY    46  41  82 NW20G26   29.59R
6HR MIN TEMP:  46; 6HR MAX TEMP:  56; 6HR PCP:  0.07;

MANITOWOC      CLOUDY    47  41  80 NW10      29.58R
6HR MIN TEMP:  47; 6HR MAX TEMP:  58; 6HR PCP:  0.02;

APPLETON       CLOUDY    45  34  65 NW14G21   29.59R
CLINTONVILLE   MOCLDY    45  36  70 NW12      29.61R
OSHKOSH        CLOUDY    46  38  73 NW14G25   29.61R
6HR MIN TEMP:  46; 6HR MAX TEMP:  56; 6HR PCP:  0.02;

$$

WIZ032>034-041-042-053>061-250700-
SOUTHWEST WISCONSIN

CITY           SKY/WX    TMP DP  RH WIND       PRES   REMARKS
LA CROSSE      CLEAR     43  36  76 NW13      29.74R
6HR MIN TEMP:  43; 6HR MAX TEMP:  55; 6HR PCP:  0.01;

SPARTA         CLEAR     43  35  74 NW13G22   29.73R
6HR MIN TEMP:  43; 6HR MAX TEMP:  56; 6HR PCP:  0.02;

VIROQUA        CLEAR     41  37  86 NW12G17   29.72R
6HR MIN TEMP:  41; 6HR MAX TEMP:  55; 6HR PCP:  0.01;

BOSCOBEL       CLEAR     47  36  65 NW8G16    29.75R
6HR MIN TEMP:  47; 6HR MAX TEMP:  59; 6HR PCP: TRACE;

PRAIRIE DU CHI CLEAR     44  34  68 NW9       29.76R
6HR MIN TEMP:  44; 6HR MAX TEMP:  58;

PLATTEVILLE    CLEAR     45  41  86 NW12G23   29.72R
6HR MIN TEMP:  45; 6HR MAX TEMP:  55;

$$

WIZ056-057-062-063-064-067-068-250700-
SOUTH CENTRAL WISCONSIN

CITY           SKY/WX    TMP DP  RH WIND       PRES   REMARKS
REEDSBURG      PTCLDY    45  36  70 NW14G25   29.69R
6HR MIN TEMP:  45; 6HR MAX TEMP:  56;

BARABOO/DELLS  MOCLDY    45  36  71 NW17G24   29.68R
6HR MIN TEMP:  45; 6HR MAX TEMP:  56;

LONE ROCK      CLEAR     48  39  71 NW12G26   29.70R
6HR MIN TEMP:  47; 6HR MAX TEMP:  59; 6HR PCP: TRACE;

MINERAL POINT  CLEAR     46  41  81 NW14G23   29.70R
MADISON        MOCLDY    48  38  68 NW14G25   29.66R
6HR MIN TEMP:  48; 6HR MAX TEMP:  57; 6HR PCP: TRACE;

MIDDLETON      CLOUDY    49  39  70 NW17G26   29.67R
6HR MIN TEMP:  48; 6HR MAX TEMP:  59;

WATERTOWN      CLOUDY    47  43  84 W13G20    29.63R
6HR MIN TEMP:  47; 6HR MAX TEMP:  56;

MONROE         PTCLDY    46  37  71 NW14G30   29.67R
JANESVILLE     PTCLDY    50  39  66 NW12      29.65R
$$

WIZ051-052-058>065-066-070>072-250700-
SOUTHEAST WISCONSIN

CITY           SKY/WX    TMP DP  RH WIND       PRES   REMARKS
MILWAUKEE      MOCLDY    53  46  77 NW17G26   29.60R
6HR MIN TEMP:  53; 6HR MAX TEMP:  58; 6HR PCP: TRACE;

WAUKESHA       MOCLDY    46  39  76 NW20G25   29.62R
MILWAUKEE/TIMM PTCLDY    50  37  62 NW15G25   29.61R
RACINE         MOCLDY    53  45  74 NW16G29   29.60R
6HR MIN TEMP:  53; 6HR MAX TEMP:  58; 6HR PCP: TRACE;

BURLINGTON     MOCLDY    53  47  80 NW20      29.62R
6HR MIN TEMP:  53; 6HR MAX TEMP:  57;

KENOSHA        CLOUDY    53  44  71 NW20G29   29.60R
6HR MIN TEMP:  52; 6HR MAX TEMP:  58; 6HR PCP: TRACE;

FOND DU LAC    CLOUDY    47  38  71 NW16G24   29.62R
6HR MIN TEMP:  47; 6HR MAX TEMP:  56; 6HR PCP: TRACE;

SHEBOYGAN      MOCLDY    48  42  80 NW16G25   29.58R
6HR MIN TEMP:  47; 6HR MAX TEMP:  57; 6HR PCP: TRACE;

WEST BEND      MOCLDY    46  41  81 NW17G24   29.60R
JUNEAU         CLOUDY    46  39  77 NW13G20   29.64R
6HR MIN TEMP:  46; 6HR MAX TEMP:  55;

$$

LSZ147-162-250700-
LAKE SUPERIOR

STATION/POSITION TIME  TEMP    WIND        PRES    WAVE
                       AIR SEA DIR/SP/G            HT/PER
                 (UTC) (F)     (DEG/KT/KT) (MB)    (FT/S)
DEVILS ISLAND    0600   41     260/ 20/ 23 1001.5R
SAXON HARBOR     0540   38     210/  7/  9 1002.0S
$$

LMZ867-665-643>646-250700-
LAKE MICHIGAN

STATION/POSITION TIME  TEMP    WIND        PRES    WAVE
                       AIR SEA DIR/SP/G            HT/PER




USA.gov is the U.S. government's official web portal to all federal, state and local government web resources and services.